KC0AFB Weather Reports


Display with metric or nautical units.
time (UTC)temp
F
wind
direction
speed
MPH
gust
MPH
rain 1hr
in
rain 24hr
in
rain mn
in
humidity
%
barometer
mb
20260505230418 41 309 9.0 10.0 0.00 0.00 0.00 48 1015.2
20260505225914 42 309 6.0 9.0 0.00 0.00 0.00 48 1015.2
20260505225411 41 308 7.0 9.0 0.00 0.00 0.00 48 1015.3
20260505224907 41 325 11.0 14.0 0.00 0.00 0.00 47 1015.0
20260505224404 42 316 8.0 10.0 0.00 0.00 0.00 48 1015.0
20260505223901 42 311 11.0 14.0 0.00 0.00 0.00 48 1015.1
20260505223358 42 306 4.0 6.0 0.00 0.00 0.00 49 1015.0
20260505222854 42 315 10.0 11.0 0.00 0.00 0.00 48 1015.0
20260505222350 42 339 11.0 14.0 0.00 0.00 0.00 49 1015.2
20260505221847 42 311 5.0 6.0 0.00 0.00 0.00 50 1015.1
20260505221344 42 324 9.0 10.0 0.00 0.00 0.00 50 1015.2
20260505220841 42 317 6.0 7.0 0.00 0.00 0.00 50 1015.0
20260505220338 41 328 8.0 9.0 0.00 0.00 0.00 50 1015.0
20260505215836 42 328 11.0 15.0 0.00 0.00 0.00 49 1015.3
20260505215334 42 337 8.0 10.0 0.00 0.00 0.00 50 1015.1
20260505214832 42 295 6.0 8.0 0.00 0.00 0.00 49 1015.0
20260505214329 42 304 11.0 14.0 0.00 0.00 0.00 48 1015.0
20260505213826 42 297 14.0 15.0 0.00 0.00 0.00 47 1015.0
20260505213324 42 312 6.0 7.0 0.00 0.00 0.00 49 1015.2
20260505212820 42 319 11.0 14.0 0.00 0.00 0.00 48 1015.1
20260505212317 42 292 9.0 13.0 0.00 0.00 0.00 49 1015.1
20260505211812 42 330 5.0 7.0 0.00 0.00 0.00 49 1015.3
20260505211311 41 283 10.0 11.0 0.00 0.00 0.00 49 1015.1
20260505210807 42 349 5.0 6.0 0.00 0.00 0.00 50 1015.0
20260505210304 42 306 9.0 11.0 0.00 0.00 0.00 49 1015.0
20260505205801 42 304 6.0 7.0 0.00 0.00 0.00 49 1015.0
20260505205259 42 335 7.0 9.0 0.00 0.00 0.00 50 1014.9
20260505204755 42 292 9.0 11.0 0.00 0.00 0.00 48 1015.1
20260505204253 42 340 9.0 10.0 0.00 0.00 0.00 48 1015.2
20260505203750 42 314 12.0 16.0 0.00 0.00 0.00 48 1015.1
20260505203247 42 319 11.0 15.0 0.00 0.00 0.00 49 1014.9
20260505202743 43 327 11.0 14.0 0.00 0.00 0.00 46 1014.9
20260505202239 42 314 6.0 6.0 0.00 0.00 0.00 47 1015.0
20260505201736 43 281 13.0 16.0 0.00 0.00 0.00 47 1014.9
20260505201234 43 305 11.0 17.0 0.00 0.00 0.00 46 1014.9
20260505200732 43 309 7.0 9.0 0.00 0.00 0.00 47 1014.6
20260505200229 43 305 12.0 18.0 0.00 0.00 0.00 46 1014.8
20260505195724 44 297 14.0 17.0 0.00 0.00 0.00 46 1014.6
20260505195222 44 304 12.0 15.0 0.00 0.00 0.00 46 1014.6
20260505194719 43 290 6.0 11.0 0.00 0.00 0.00 48 1014.6
20260505194215 43 11 9.0 13.0 0.00 0.00 0.00 47 1015.0
20260505193711 42 303 13.0 17.0 0.00 0.00 0.00 46 1014.8
20260505193208 42 348 8.0 10.0 0.00 0.00 0.00 48 1014.9
20260505192707 42 309 10.0 16.0 0.00 0.00 0.00 47 1014.9
20260505192203 42 326 10.0 14.0 0.00 0.00 0.00 48 1014.8
20260505191702 42 309 8.0 9.0 0.00 0.00 0.00 47 1014.5
20260505191159 42 336 10.0 15.0 0.00 0.00 0.00 47 1014.8
20260505190655 42 330 11.0 13.0 0.00 0.00 0.00 46 1014.5
20260505190150 42 325 11.0 14.0 0.00 0.00 0.00 47 1014.5
20260505185647 42 316 11.0 11.0 0.00 0.00 0.00 46 1014.5
20260505185143 42 348 11.0 14.0 0.00 0.00 0.00 45 1014.6
20260505184640 42 319 8.0 11.0 0.00 0.00 0.00 46 1014.4
20260505184137 43 334 14.0 16.0 0.00 0.00 0.00 45 1014.6
20260505183634 43 308 11.0 15.0 0.00 0.00 0.00 44 1014.5
20260505183132 42 313 9.0 10.0 0.00 0.00 0.00 46 1014.5
20260505182627 42 282 13.0 16.0 0.00 0.00 0.00 46 1014.4
20260505182124 42 319 10.0 11.0 0.00 0.00 0.00 46 1014.5
20260505181621 42 325 10.0 13.0 0.00 0.00 0.00 45 1014.5
20260505181118 42 338 9.0 10.0 0.00 0.00 0.00 46 1014.5
20260505180614 42 277 7.0 10.0 0.00 0.00 0.00 47 1014.5
20260505180112 42 279 14.0 16.0 0.00 0.00 0.00 47 1014.5
20260505175608 42 315 9.0 13.0 0.00 0.00 0.00 48 1014.5
20260505175104 42 292 7.0 10.0 0.00 0.00 0.00 48 1014.4
20260505174601 42 329 12.0 17.0 0.00 0.00 0.00 48 1014.5
20260505174057 42 313 11.0 14.0 0.00 0.00 0.00 47 1014.5
20260505173554 42 291 13.0 16.0 0.00 0.00 0.00 47 1014.5
20260505173051 42 294 7.0 8.0 0.00 0.00 0.00 48 1014.9
20260505172548 41 301 9.0 13.0 0.00 0.00 0.00 47 1014.8
20260505172045 41 290 10.0 14.0 0.00 0.00 0.00 46 1014.5
20260505171539 41 343 10.0 11.0 0.00 0.00 0.00 47 1014.5
20260505171037 42 336 11.0 11.0 0.00 0.00 0.00 46 1014.4
20260505170534 42 294 7.0 9.0 0.00 0.00 0.00 48 1014.4
20260505170030 42 286 12.0 16.0 0.00 0.00 0.00 47 1014.4
20260505165525 41 281 7.0 8.0 0.00 0.00 0.00 48 1014.5
20260505165021 42 318 12.0 14.0 0.00 0.00 0.00 48 1014.5
20260505164517 44 294 6.0 7.0 0.00 0.00 0.00 50 1014.5
20260505164015 41 351 7.0 9.0 0.00 0.00 0.00 52 1014.5
20260505163514 40 313 9.0 15.0 0.00 0.00 0.00 52 1014.6
20260505163010 40 291 9.0 13.0 0.00 0.00 0.00 51 1014.6
20260505162503 40 293 13.0 15.0 0.00 0.00 0.00 50 1014.5
20260505162000 40 288 10.0 11.0 0.00 0.00 0.00 51 1014.6
20260505161457 40 323 9.0 13.0 0.00 0.00 0.00 50 1014.4
20260505160954 41 327 8.0 9.0 0.00 0.00 0.00 52 1014.5
20260505160452 40 331 10.0 14.0 0.00 0.00 0.00 51 1014.2
20260505152923 39 300 9.0 10.0 0.00 0.00 0.00 54 1014.3
20260505152420 40 348 14.0 17.0 0.00 0.00 0.00 52 1014.3
20260505151919 39 312 7.0 8.0 0.00 0.00 0.00 57 1014.2
20260505151410 39 315 8.0 10.0 0.00 0.00 0.00 58 1014.2
20260505150908 40 306 7.0 9.0 0.00 0.00 0.00 56 1014.3
20260505150404 40 306 9.0 11.0 0.00 0.00 0.00 59 1014.3
20260505140329 39 321 12.0 14.0 0.00 0.00 0.00 61 1013.9
20260505130252 37 290 11.0 14.0 0.00 0.00 0.00 66 1013.4
20260505124743 36 326 9.0 10.0 0.00 0.00 0.00 66 1013.4
20260505124240 36 303 5.0 6.0 0.00 0.00 0.00 68 1013.3
20260505123735 36 306 7.0 8.0 0.00 0.00 0.00 68 1013.2
20260505123232 36 306 7.0 8.0 0.00 0.00 0.00 69 1013.2
20260505122728 35 286 8.0 9.0 0.00 0.00 0.00 70 1013.1
20260505122226 35 299 7.0 9.0 0.00 0.00 0.00 70 1013.0
20260505121722 35 278 5.0 8.0 0.00 0.00 0.00 71 1013.2
20260505121219 35 312 6.0 7.0 0.00 0.00 0.00 72 1012.6
20260505120715 35 272 5.0 6.0 0.00 0.00 0.00 72 1012.6
20260505120212 34 279 4.0 7.0 0.00 0.00 0.00 73 1012.7
20260505115710 34 277 5.0 6.0 0.00 0.00 0.00 73 1012.9
20260505115208 34 287 5.0 6.0 0.00 0.00 0.00 73 1012.9
20260505114705 34 298 5.0 7.0 0.00 0.00 0.00 73 1012.5
20260505114201 34 299 5.0 7.0 0.00 0.00 0.00 73 1012.6
20260505113658 34 288 7.0 9.0 0.00 0.00 0.00 72 1012.6
20260505113155 34 284 4.0 5.0 0.00 0.00 0.00 72 1012.6
20260505112651 34 292 5.0 6.0 0.00 0.00 0.00 73 1012.5
20260505112149 34 282 5.0 7.0 0.00 0.00 0.00 73 1012.4
20260505111648 33 299 4.0 5.0 0.00 0.00 0.00 73 1012.3
20260505111144 34 303 7.0 8.0 0.00 0.00 0.00 73 1012.4
20260505110641 33 271 5.0 6.0 0.00 0.00 0.00 73 1012.5
20260505110138 34 304 4.0 5.0 0.00 0.00 0.00 73 1012.5
20260505102114 33 303 3.0 3.0 0.00 0.00 0.00 73 1012.4
20260505101612 33 318 2.0 2.0 0.00 0.00 0.00 73 1012.4
20260505101108 33 353 2.0 3.0 0.00 0.00 0.00 72 1012.7
20260505100605 33 320 2.0 2.0 0.00 0.00 0.00 72 1012.6
20260505095558 33 318 3.0 3.0 0.00 0.00 0.00 71 1012.5
20260505095054 33 283 3.0 3.0 0.00 0.00 0.00 71 1012.3
20260505094551 33 290 3.0 3.0 0.00 0.00 0.00 70 1012.6
20260505094047 33 281 4.0 5.0 0.00 0.00 0.00 70 1012.7
20260505093543 33 298 5.0 6.0 0.00 0.00 0.00 71 1012.4
20260505093041 33 291 4.0 5.0 0.00 0.00 0.00 71 1012.4
20260505092538 33 298 5.0 7.0 0.00 0.00 0.00 71 1012.3
20260505092037 32 302 3.0 3.0 0.00 0.00 0.00 72 1012.5
20260505091533 33 292 3.0 5.0 0.00 0.00 0.00 71 1012.4
20260505091032 33 284 4.0 5.0 0.00 0.00 0.00 71 1012.4
20260505090529 33 271 5.0 6.0 0.00 0.00 0.00 70 1012.5
20260505090027 33 288 5.0 6.0 0.00 0.00 0.00 70 1012.5
20260505085524 33 269 4.0 5.0 0.00 0.00 0.00 71 1012.2
20260505085022 33 283 4.0 5.0 0.00 0.00 0.00 71 1012.4
20260505084520 33 278 4.0 5.0 0.00 0.00 0.00 70 1012.5
20260505084018 33 299 5.0 6.0 0.00 0.00 0.00 70 1012.2
20260505083515 33 280 4.0 6.0 0.00 0.00 0.00 70 1012.4
20260505083012 33 261 6.0 7.0 0.00 0.00 0.00 70 1012.5
20260505082507 33 294 4.0 7.0 0.00 0.00 0.00 70 1012.4
20260505082004 33 276 3.0 3.0 0.00 0.00 0.00 70 1012.5
20260505081501 33 303 3.0 3.0 0.00 0.00 0.00 70 1012.5
20260505080957 33 301 3.0 5.0 0.00 0.00 0.00 69 1012.2
20260505080454 34 284 3.0 3.0 0.00 0.00 0.00 68 1012.5
20260505075949 34 272 3.0 5.0 0.00 0.00 0.00 68 1012.4
20260505075446 35 270 5.0 5.0 0.00 0.00 0.00 66 1012.4
20260505074944 35 285 7.0 9.0 0.00 0.00 0.00 66 1012.5
20260505074441 35 310 4.0 6.0 0.00 0.00 0.00 65 1012.5
20260505073938 35 287 3.0 3.0 0.00 0.00 0.00 65 1012.3
20260505073436 35 290 7.0 8.0 0.00 0.00 0.00 65 1012.4
20260505072933 36 311 7.0 8.0 0.00 0.00 0.00 64 1012.2
20260505072429 36 297 6.0 7.0 0.00 0.00 0.00 64 1012.3
20260505071925 36 319 5.0 6.0 0.00 0.00 0.00 64 1012.3
20260505071421 36 298 5.0 6.0 0.00 0.00 0.00 63 1012.5
20260505070919 37 269 7.0 8.0 0.00 0.00 0.00 63 1012.1
20260505070415 37 305 7.0 8.0 0.00 0.00 0.00 63 1012.2
20260505065911 37 290 7.0 9.0 0.00 0.00 0.00 62 1012.3
20260505065408 37 333 7.0 8.0 0.00 0.00 0.00 62 1012.4
20260505064905 37 281 7.0 9.0 0.00 0.00 0.00 62 1012.0
20260505064402 37 303 7.0 9.0 0.00 0.00 0.00 62 1012.3
20260505063901 37 286 6.0 8.0 0.00 0.00 0.00 62 1012.3
20260505063356 37 300 7.0 9.0 0.00 0.00 0.00 63 1012.1
20260505062853 37 302 4.0 5.0 0.00 0.00 0.00 63 1012.1
20260505062350 35 303 3.0 3.0 0.00 0.00 0.00 65 1012.0
20260505061847 35 269 3.0 3.0 0.00 0.00 0.00 66 1012.2
20260505061345 34 290 3.0 3.0 0.00 0.00 0.00 66 1012.2
20260505060842 34 274 3.0 3.0 0.00 0.00 0.00 67 1012.0
20260505060339 33 309 3.0 3.0 0.00 0.00 0.00 67 1011.8
20260505055835 33 301 4.0 6.0 0.00 0.00 0.00 67 1012.0
20260505055331 33 300 2.0 2.0 0.00 0.00 0.00 67 1012.0
20260505054828 33 304 3.0 3.0 0.00 0.00 0.00 66 1011.9
20260505054326 33 289 2.0 2.0 0.00 0.00 0.00 67 1011.9
20260505053824 32 308 2.0 2.0 0.00 0.00 0.00 68 1012.1
20260505053320 31 305 1.0 1.0 0.00 0.00 0.00 68 1012.0
20260505052817 32 297 1.0 1.0 0.00 0.00 0.00 67 1011.9
20260505052314 31 351 1.0 2.0 0.00 0.00 0.00 67 1012.0
20260505051811 31 18 1.0 1.0 0.00 0.00 0.00 68 1011.9
20260505051309 31 331 1.0 1.0 0.00 0.00 0.00 68 1011.8
20260505050807 31 330 0.0 1.0 0.00 0.00 0.00 67 1011.7
20260505050305 31 335 0.0 0.0 0.00 0.00 0.00 67 1011.8
20260505041735 35 326 4.0 5.0 0.00 0.00 0.00 60 1011.6
20260505041232 35 326 3.0 3.0 0.00 0.00 0.00 60 1011.5
20260505040729 36 289 3.0 5.0 0.00 0.00 0.00 59 1011.5
20260505040226 36 298 3.0 3.0 0.00 0.00 0.00 58 1011.3
20260505035723 36 316 5.0 6.0 0.00 0.00 0.00 59 1011.5
20260505035219 36 344 5.0 7.0 0.00 0.00 0.00 58 1011.3
20260505034716 36 306 3.0 3.0 0.00 0.00 0.00 59 1011.7
20260505034213 36 321 5.0 5.0 0.00 0.00 0.00 59 1011.3
20260505033709 35 318 4.0 5.0 0.00 0.00 0.00 60 1011.5
20260505033208 35 331 3.0 5.0 0.00 0.00 0.00 60 1011.4
20260505032705 36 311 3.0 5.0 0.00 0.00 0.00 60 1011.4
20260505032201 36 331 4.0 5.0 0.00 0.00 0.00 59 1011.4
20260505031658 36 337 3.0 3.0 0.00 0.00 0.00 58 1011.5
20260505031155 37 316 4.0 6.0 0.00 0.00 0.00 58 1011.1
20260505030652 37 320 3.0 5.0 0.00 0.00 0.00 58 1011.1
20260505030147 37 319 3.0 3.0 0.00 0.00 0.00 58 1011.1
20260505025643 37 349 4.0 5.0 0.00 0.00 0.00 57 1011.1
20260505025142 37 315 4.0 5.0 0.00 0.00 0.00 57 1010.7
20260505024639 38 357 3.0 3.0 0.00 0.00 0.00 57 1010.9
20260505024136 38 6 3.0 3.0 0.00 0.00 0.00 56 1010.6
20260505023634 38 329 5.0 7.0 0.00 0.00 0.00 56 1010.6
20260505023131 38 328 6.0 6.0 0.00 0.00 0.00 55 1010.6
20260505022628 39 310 6.0 7.0 0.00 0.00 0.00 54 1010.7
20260505022125 39 331 7.0 7.0 0.00 0.00 0.00 54 1010.3
20260505021622 39 314 4.0 7.0 0.00 0.00 0.00 54 1010.4
20260505021119 39 347 5.0 6.0 0.00 0.00 0.00 53 1010.3
20260505020614 40 319 5.0 7.0 0.00 0.00 0.00 53 1010.3
20260505020111 40 326 6.0 8.0 0.00 0.00 0.00 52 1010.0
20260505015608 41 350 9.0 11.0 0.00 0.00 0.00 51 1010.1
20260505015105 41 314 6.0 8.0 0.00 0.00 0.00 51 1010.0
20260505014601 41 317 7.0 8.0 0.00 0.00 0.00 51 1009.8
20260505014058 42 299 7.0 11.0 0.00 0.00 0.00 50 1009.9
20260505013555 42 338 6.0 8.0 0.00 0.00 0.00 50 1009.8
20260505013053 42 351 10.0 14.0 0.00 0.00 0.00 50 1009.8
20260505012551 42 2 7.0 9.0 0.00 0.00 0.00 50 1009.8
20260505012048 43 326 7.0 8.0 0.00 0.00 0.00 49 1009.7
20260505011543 43 340 6.0 7.0 0.00 0.00 0.00 48 1009.8
20260505011041 43 329 6.0 7.0 0.00 0.00 0.00 48 1009.6
20260505010536 44 301 10.0 14.0 0.00 0.00 0.00 47 1009.5
20260505010033 44 288 15.0 20.0 0.00 0.00 0.00 45 1009.3
20260505005529 44 304 11.0 18.0 0.00 0.00 0.00 45 1009.4
20260505005027 44 338 10.0 13.0 0.00 0.00 0.00 46 1009.6
20260505004523 44 281 11.0 14.0 0.00 0.00 0.00 47 1009.3
20260505004020 45 338 10.0 13.0 0.00 0.00 0.00 47 1009.7
20260505003517 45 313 11.0 15.0 0.00 0.00 0.00 47 1009.4
20260505003015 45 320 14.0 16.0 0.00 0.00 0.00 48 1009.5
20260505002509 45 336 13.0 15.0 0.00 0.00 0.00 48 1009.5
20260505002009 45 334 14.0 17.0 0.00 0.00 0.00 47 1009.3
20260505001506 46 314 13.0 17.0 0.00 0.00 0.00 47 1009.4
20260505001003 45 278 13.0 16.0 0.00 0.00 0.00 47 1009.4
20260505000500 45 358 10.0 16.0 0.00 0.00 0.00 48 1009.5
20260504235957 45 317 10.0 13.0 0.00 0.00 0.00 48 1009.4
20260504235454 46 344 12.0 15.0 0.00 0.00 0.00 47 1008.9
20260504234951 45 340 10.0 13.0 0.00 0.00 0.00 48 1009.2
20260504234448 46 318 9.0 11.0 0.00 0.00 0.00 47 1009.2
20260504233944 46 330 16.0 18.0 0.00 0.00 0.00 47 1009.2
20260504233440 46 336 15.0 21.0 0.00 0.00 0.00 47 1009.2
20260504232937 47 309 11.0 17.0 0.00 0.00 0.00 46 1009.2
20260504232434 47 324 16.0 22.0 0.00 0.00 0.00 46 1009.3
20260504231931 47 278 15.0 18.0 0.00 0.00 0.00 47 1009.2
20260504231427 47 268 11.0 11.0 0.00 0.00 0.00 47 1009.3
20260504230924 46 341 11.0 14.0 0.00 0.00 0.00 47 1009.0